Location: Härggis
(46.9540°N, 8.4897°E)
Time: 00:12:53
(UTC+00:00)

Cosmos 371 Rocket - Pass Details

Date: 27 May 2022
Orbit: 684 x 697 km, 74.0° (Epoch: 02 July)

Event Time Altitude Azimuth Distance (km) Brightness Sun altitude
Exits shadow 00:06:59 52° 192° (SSW) 862 3.3 -21.1°
Maximum altitude 00:08:09 84° 111° (ESE) 705 3.2 -21.0°
Drops below altitude 10° 00:13:02 10° 23° (NNE) 2,157 7.0 -20.9°
Sets 00:15:21 0° 23° (NNE) 3,076 8.1 -20.8°
